TimeEDT,TemperatureF,Dew PointF,Humidity,Sea Level PressureIn,VisibilityMPH,Wind Direction,Wind SpeedMPH,Gust SpeedMPH,PrecipitationIn,Events,Conditions,WindDirDegrees,DateUTC
12:52 AM,52.0,48.0,86,30.19,10.0,Calm,Calm,-,N/A,,Overcast,0,2013-09-27 04:52:00
1:52 AM,52.0,48.0,86,30.18,10.0,Calm,Calm,-,N/A,,Overcast,0,2013-09-27 05:52:00
2:52 AM,53.1,46.0,77,30.18,10.0,SE,3.5,-,N/A,,Overcast,130,2013-09-27 06:52:00
3:52 AM,51.1,46.0,83,30.19,10.0,Calm,Calm,-,N/A,,Overcast,0,2013-09-27 07:52:00
4:06 AM,51.8,46.4,82,30.18,10.0,Calm,Calm,-,N/A,,Overcast,0,2013-09-27 08:06:00
4:41 AM,51.8,46.4,82,30.19,10.0,Calm,Calm,-,N/A,,Overcast,0,2013-09-27 08:41:00
4:52 AM,51.1,46.9,86,30.20,10.0,Calm,Calm,-,N/A,,Overcast,0,2013-09-27 08:52:00
5:52 AM,51.1,46.9,86,30.22,10.0,Calm,Calm,-,N/A,,Overcast,0,2013-09-27 09:52:00
6:52 AM,51.1,46.9,86,30.24,10.0,Calm,Calm,-,N/A,,Overcast,0,2013-09-27 10:52:00
7:52 AM,52.0,48.0,86,30.26,10.0,Calm,Calm,-,N/A,,Overcast,0,2013-09-27 11:52:00
8:52 AM,54.0,48.0,80,30.27,10.0,NE,3.5,-,N/A,,Overcast,40,2013-09-27 12:52:00
9:52 AM,59.0,48.9,69,30.27,10.0,NW,3.5,-,N/A,,Overcast,320,2013-09-27 13:52:00
10:52 AM,61.0,46.9,60,30.27,10.0,Calm,Calm,-,N/A,,Scattered Clouds,0,2013-09-27 14:52:00
11:28 AM,60.8,48.2,63,30.26,10.0,NNW,5.8,-,N/A,,Overcast,330,2013-09-27 15:28:00
11:44 AM,62.6,48.2,59,30.26,10.0,Calm,Calm,-,N/A,,Overcast,0,2013-09-27 15:44:00
11:52 AM,63.0,46.9,56,30.27,10.0,Calm,Calm,-,N/A,,Overcast,0,2013-09-27 15:52:00
12:52 PM,64.9,48.9,56,30.26,10.0,Calm,Calm,-,N/A,,Partly Cloudy,0,2013-09-27 16:52:00
1:52 PM,68.0,48.0,49,30.23,10.0,NW,3.5,-,N/A,,Clear,320,2013-09-27 17:52:00
2:52 PM,69.1,48.0,47,30.22,10.0,Calm,Calm,-,N/A,,Mostly Cloudy,0,2013-09-27 18:52:00
3:52 PM,69.1,48.0,47,30.22,10.0,NE,4.6,-,N/A,,Mostly Cloudy,40,2013-09-27 19:52:00
4:52 PM,66.9,48.0,51,30.22,10.0,Calm,Calm,-,N/A,,Scattered Clouds,0,2013-09-27 20:52:00
5:52 PM,64.9,48.0,54,30.23,10.0,Calm,Calm,-,N/A,,Overcast,0,2013-09-27 21:52:00
6:52 PM,57.0,51.1,81,30.25,10.0,Calm,Calm,-,N/A,,Partly Cloudy,0,2013-09-27 22:52:00
7:52 PM,53.1,48.9,86,30.27,10.0,Calm,Calm,-,N/A,,Partly Cloudy,0,2013-09-27 23:52:00
8:52 PM,50.0,46.9,89,30.29,10.0,Calm,Calm,-,N/A,,Clear,0,2013-09-28 00:52:00
9:52 PM,48.0,45.0,89,30.30,10.0,Calm,Calm,-,N/A,,Partly Cloudy,0,2013-09-28 01:52:00
10:52 PM,46.0,43.0,89,30.31,10.0,Calm,Calm,-,N/A,,Clear,0,2013-09-28 02:52:00
11:52 PM,44.1,41.0,89,30.32,10.0,Calm,Calm,-,N/A,,Clear,0,2013-09-28 03:52:00